"2024-05-07 03:36:38",28,29.72,0.18
"2024-05-07 03:31:35",32,29.72,0.21
"2024-05-07 03:26:34",40,29.72,0.26
"2024-05-07 03:21:31",16,29.72,0.10
"2024-05-07 03:16:29",29,29.72,0.19
"2024-05-07 03:11:27",21,29.72,0.14
"2024-05-07 03:06:25",20,29.72,0.13
"2024-05-07 03:01:23",25,29.72,0.16
"2024-05-07 02:56:22",26,29.72,0.17
"2024-05-07 02:51:19",31,29.72,0.20
"2024-05-07 02:46:17",20,29.72,0.13
"2024-05-07 02:41:15",23,29.72,0.15
"2024-05-07 02:36:13",42,29.72,0.27
"2024-05-07 02:31:11",32,29.72,0.21
"2024-05-07 02:26:09",28,29.72,0.18
"2024-05-07 02:21:07",43,29.72,0.28
"2024-05-07 02:16:06",19,29.72,0.12
"2024-05-07 02:11:03",25,29.73,0.16
"2024-05-07 02:06:01",15,29.73,0.10
"2024-05-07 02:01:00",23,29.73,0.15
"2024-05-07 01:55:57",16,29.73,0.10
"2024-05-07 01:50:55",33,29.73,0.21
"2024-05-07 01:45:54",28,29.73,0.18
"2024-05-07 01:40:51",21,29.73,0.14
"2024-05-07 01:35:49",34,29.73,0.22
"2024-05-07 01:30:47",18,29.73,0.12
"2024-05-07 01:25:45",32,29.73,0.21
"2024-05-07 01:20:43",32,29.73,0.21
"2024-05-07 01:15:41",20,29.73,0.13
"2024-05-07 01:10:39",27,29.73,0.18
"2024-05-07 01:05:38",42,29.73,0.27
"2024-05-07 01:00:35",18,29.73,0.12
"2024-05-07 00:55:33",28,29.73,0.18
"2024-05-07 00:50:32",18,29.73,0.12
"2024-05-07 00:45:29",25,29.73,0.16
"2024-05-07 00:40:27",41,29.73,0.27
"2024-05-07 00:35:25",17,29.73,0.11
"2024-05-07 00:30:24",42,29.73,0.27
"2024-05-07 00:25:22",38,29.73,0.25
"2024-05-07 00:20:19",16,29.73,0.10
"2024-05-07 00:15:17",24,29.73,0.16
"2024-05-07 00:10:15",32,29.73,0.21
"2024-05-07 00:05:13",25,29.73,0.16
"2024-05-07 00:00:11",14,29.73,0.09
"2024-05-06 23:55:09",25,29.73,0.16
"2024-05-06 23:50:07",32,29.74,0.21
"2024-05-06 23:45:05",21,29.74,0.14
"2024-05-06 23:40:04",29,29.74,0.19
"2024-05-06 23:35:01",35,29.74,0.23
"2024-05-06 23:29:59",24,29.74,0.16
"2024-05-06 23:24:57",28,29.74,0.18
"2024-05-06 23:19:56",15,29.74,0.10
"2024-05-06 23:14:53",27,29.74,0.18
"2024-05-06 23:09:52",19,29.74,0.12
"2024-05-06 23:04:49",29,29.74,0.19
"2024-05-06 22:59:47",34,29.74,0.22
"2024-05-06 22:54:45",36,29.74,0.23
"2024-05-06 22:49:43",15,29.74,0.10
"2024-05-06 22:44:41",30,29.74,0.19
"2024-05-06 22:39:40",34,29.74,0.22
"2024-05-06 22:34:37",16,29.74,0.10
"2024-05-06 22:29:35",37,29.74,0.24
"2024-05-06 22:24:33",15,29.74,0.10
"2024-05-06 22:19:32",30,29.74,0.19
"2024-05-06 22:14:29",26,29.74,0.17
"2024-05-06 22:09:27",43,29.74,0.28
"2024-05-06 22:04:25",30,29.74,0.19
"2024-05-06 21:59:23",43,29.74,0.28
"2024-05-06 21:54:21",25,29.74,0.16
"2024-05-06 21:49:19",34,29.74,0.22
"2024-05-06 21:44:18",29,29.74,0.19
"2024-05-06 21:39:15",42,29.74,0.27
"2024-05-06 21:34:13",39,29.74,0.25
"2024-05-06 21:29:11",22,29.74,0.14
"2024-05-06 21:24:10",34,29.74,0.22
"2024-05-06 21:19:08",28,29.74,0.18
"2024-05-06 21:14:05",31,29.74,0.20
"2024-05-06 21:09:03",34,29.74,0.22
"2024-05-06 21:04:01",25,29.74,0.16
"2024-05-06 20:59:00",24,29.74,0.16
"2024-05-06 20:53:57",31,29.74,0.20
"2024-05-06 20:48:55",32,29.74,0.21
"2024-05-06 20:43:53",29,29.74,0.19
"2024-05-06 20:38:51",31,29.74,0.20
"2024-05-06 20:33:49",31,29.74,0.20
"2024-05-06 20:28:47",17,29.74,0.11
"2024-05-06 20:23:45",31,29.74,0.20
"2024-05-06 20:18:43",30,29.74,0.19
"2024-05-06 20:13:42",28,29.74,0.18
"2024-05-06 20:08:39",25,29.74,0.16
"2024-05-06 20:03:37",51,29.74,0.33
"2024-05-06 19:58:35",24,29.74,0.16
"2024-05-06 19:53:34",46,29.74,0.30
"2024-05-06 19:48:31",31,29.74,0.20
"2024-05-06 19:43:29",32,29.74,0.21
"2024-05-06 19:38:27",22,29.74,0.14
"2024-05-06 19:33:26",42,29.74,0.27
"2024-05-06 19:28:23",20,29.74,0.13
"2024-05-06 19:23:21",28,29.74,0.18
"2024-05-06 19:18:19",26,29.74,0.17
"2024-05-06 19:13:17",21,29.74,0.14
"2024-05-06 19:08:15",29,29.74,0.19
"2024-05-06 19:03:13",21,29.74,0.14
"2024-05-06 18:58:12",19,29.74,0.12
"2024-05-06 18:53:09",18,29.74,0.12
"2024-05-06 18:48:07",19,29.74,0.12
"2024-05-06 18:43:06",28,29.74,0.18
"2024-05-06 18:38:03",23,29.74,0.15
"2024-05-06 18:33:01",22,29.74,0.14
"2024-05-06 18:27:59",20,29.75,0.13
"2024-05-06 18:22:57",42,29.75,0.27
"2024-05-06 18:17:55",39,29.75,0.25
"2024-05-06 18:12:54",36,29.75,0.23
"2024-05-06 18:07:51",42,29.75,0.27
"2024-05-06 18:02:49",28,29.75,0.18
"2024-05-06 17:57:47",18,29.75,0.12
"2024-05-06 17:52:45",22,29.75,0.14
"2024-05-06 17:47:43",30,29.75,0.19
"2024-05-06 17:42:42",34,29.75,0.22
"2024-05-06 17:37:39",31,29.75,0.20
"2024-05-06 17:32:38",30,29.75,0.19
"2024-05-06 17:27:35",30,29.75,0.19
"2024-05-06 17:22:34",21,29.75,0.14
"2024-05-06 17:17:31",23,29.75,0.15
"2024-05-06 17:12:29",33,29.75,0.21
"2024-05-06 17:07:27",24,29.75,0.16
"2024-05-06 17:02:25",35,29.75,0.23
"2024-05-06 16:57:23",28,29.75,0.18
"2024-05-06 16:52:22",27,29.75,0.18
"2024-05-06 16:47:20",11,29.75,0.07
"2024-05-06 16:42:18",28,29.75,0.18
"2024-05-06 16:37:16",33,29.75,0.21
"2024-05-06 16:32:13",27,29.75,0.18
"2024-05-06 16:27:12",24,29.75,0.16
"2024-05-06 16:17:07",28,29.75,0.18
"2024-05-06 16:12:05",24,29.75,0.16
"2024-05-06 16:07:03",29,29.75,0.19
"2024-05-06 16:02:02",25,29.75,0.16
"2024-05-06 15:56:59",24,29.75,0.16
"2024-05-06 15:51:58",38,29.75,0.25
"2024-05-06 15:46:55",37,29.75,0.24
"2024-05-06 15:41:53",33,29.75,0.21
"2024-05-06 15:36:51",22,29.75,0.14
"2024-05-06 15:31:49",40,29.75,0.26
"2024-05-06 15:26:47",24,29.75,0.16
"2024-05-06 15:21:45",41,29.76,0.27
"2024-05-06 15:16:43",24,29.76,0.16
"2024-05-06 15:11:41",16,29.76,0.10
"2024-05-06 15:06:40",20,29.76,0.13
"2024-05-06 15:01:37",20,29.76,0.13
"2024-05-06 14:56:35",32,29.76,0.21
"2024-05-06 14:51:33",39,29.76,0.25
"2024-05-06 14:46:32",20,29.76,0.13
"2024-05-06 14:41:29",24,29.76,0.16
"2024-05-06 14:36:27",26,29.76,0.17
"2024-05-06 14:31:25",31,29.76,0.20
"2024-05-06 14:26:23",53,29.76,0.34
"2024-05-06 14:21:21",32,29.76,0.21
"2024-05-06 14:16:19",34,29.76,0.22
"2024-05-06 14:11:17",41,29.76,0.27
"2024-05-06 14:06:15",40,29.76,0.26
"2024-05-06 14:01:13",27,29.76,0.18
"2024-05-06 13:56:11",32,29.76,0.21
"2024-05-06 13:51:09",23,29.76,0.15
"2024-05-06 13:46:07",31,29.76,0.20
"2024-05-06 13:41:05",21,29.76,0.14
"2024-05-06 13:36:04",25,29.76,0.16
"2024-05-06 13:31:02",32,29.76,0.21
"2024-05-06 13:26:01",32,29.76,0.21
"2024-05-06 13:20:57",28,29.76,0.18
"2024-05-06 13:15:55",21,29.76,0.14
"2024-05-06 13:10:53",41,29.76,0.27
"2024-05-06 13:05:51",26,29.76,0.17
"2024-05-06 13:00:50",30,29.76,0.19
"2024-05-06 12:55:48",34,29.76,0.22
"2024-05-06 12:50:45",20,29.76,0.13
"2024-05-06 12:45:44",25,29.76,0.16
"2024-05-06 12:40:41",38,29.76,0.25
"2024-05-06 12:35:39",23,29.76,0.15
"2024-05-06 12:30:38",23,29.76,0.15
"2024-05-06 12:25:35",26,29.76,0.17
"2024-05-06 12:20:34",32,29.76,0.21
"2024-05-06 12:15:31",15,29.76,0.10
"2024-05-06 12:10:30",23,29.76,0.15
"2024-05-06 12:05:28",20,29.76,0.13
"2024-05-06 12:00:25",21,29.76,0.14
"2024-05-06 11:55:23",31,29.76,0.20
"2024-05-06 11:50:21",25,29.76,0.16
"2024-05-06 11:45:19",20,29.76,0.13
"2024-05-06 11:40:18",23,29.76,0.15
"2024-05-06 11:35:15",26,29.76,0.17
"2024-05-06 11:30:14",18,29.76,0.12
"2024-05-06 11:25:12",29,29.76,0.19
"2024-05-06 11:20:09",27,29.76,0.18
"2024-05-06 11:15:07",29,29.76,0.19
"2024-05-06 11:10:06",22,29.76,0.14
"2024-05-06 11:05:04",28,29.76,0.18
"2024-05-06 10:54:59",21,29.76,0.14
"2024-05-06 10:49:58",50,29.76,0.32
"2024-05-06 10:44:55",25,29.76,0.16
"2024-05-06 10:39:53",16,29.76,0.10
"2024-05-06 10:34:51",35,29.76,0.23
"2024-05-06 10:29:49",30,29.76,0.19
"2024-05-06 10:24:48",27,29.76,0.18
"2024-05-06 10:19:45",26,29.76,0.17
"2024-05-06 10:14:44",38,29.76,0.25
"2024-05-06 10:09:41",27,29.76,0.18
"2024-05-06 10:04:39",47,29.76,0.31
"2024-05-06 09:59:37",17,29.76,0.11
"2024-05-06 09:54:35",30,29.76,0.19
"2024-05-06 09:49:33",32,29.76,0.21
"2024-05-06 09:44:31",30,29.76,0.19
"2024-05-06 09:39:29",33,29.76,0.21
"2024-05-06 09:34:27",35,29.76,0.23
"2024-05-06 09:29:26",35,29.76,0.23
"2024-05-06 09:24:23",17,29.76,0.11
"2024-05-06 09:19:21",26,29.76,0.17
"2024-05-06 09:14:19",26,29.76,0.17
"2024-05-06 09:09:17",33,29.76,0.21
"2024-05-06 09:04:15",34,29.76,0.22
"2024-05-06 08:59:13",32,29.76,0.21
"2024-05-06 08:54:11",24,29.76,0.16
"2024-05-06 08:49:10",28,29.76,0.18
"2024-05-06 08:44:08",35,29.76,0.23
"2024-05-06 08:39:05",26,29.76,0.17
"2024-05-06 08:34:03",20,29.77,0.13
"2024-05-06 08:29:02",21,29.77,0.14
"2024-05-06 08:23:59",32,29.77,0.21
"2024-05-06 08:18:58",30,29.77,0.19
"2024-05-06 08:13:55",41,29.77,0.27
"2024-05-06 08:08:54",36,29.77,0.23
"2024-05-06 08:03:52",29,29.77,0.19
"2024-05-06 07:58:49",45,29.77,0.29
"2024-05-06 07:53:47",37,29.77,0.24
"2024-05-06 07:48:45",31,29.77,0.20
"2024-05-06 07:43:43",28,29.77,0.18
"2024-05-06 07:38:41",32,29.77,0.21
"2024-05-06 07:33:39",26,29.77,0.17
"2024-05-06 07:28:38",28,29.77,0.18
"2024-05-06 07:23:35",27,29.77,0.18
"2024-05-06 07:18:33",22,29.77,0.14
"2024-05-06 07:13:31",36,29.77,0.23
"2024-05-06 07:08:28",35,29.77,0.23
"2024-05-06 07:03:27",18,29.77,0.12
"2024-05-06 06:58:25",44,29.77,0.29
"2024-05-06 06:53:24",23,29.77,0.15
"2024-05-06 06:48:21",38,29.77,0.25
"2024-05-06 06:43:19",22,29.77,0.14
"2024-05-06 06:38:18",36,29.77,0.23
"2024-05-06 06:33:15",29,29.77,0.19
"2024-05-06 06:28:13",35,29.77,0.23
"2024-05-06 06:23:12",41,29.77,0.27
"2024-05-06 06:18:10",27,29.77,0.18
"2024-05-06 06:13:08",20,29.77,0.13
"2024-05-06 06:08:05",25,29.77,0.16
"2024-05-06 06:03:03",15,29.77,0.10
"2024-05-06 05:58:02",25,29.77,0.16
"2024-05-06 05:52:59",19,29.77,0.12
"2024-05-06 05:47:57",29,29.77,0.19
"2024-05-06 05:42:55",37,29.77,0.24
"2024-05-06 05:37:53",24,29.77,0.16
"2024-05-06 05:32:51",25,29.77,0.16
"2024-05-06 05:27:49",17,29.77,0.11
"2024-05-06 05:22:47",15,29.77,0.10
"2024-05-06 05:17:45",29,29.77,0.19
"2024-05-06 05:12:43",32,29.77,0.21
"2024-05-06 05:07:41",23,29.77,0.15
"2024-05-06 05:02:40",40,29.77,0.26
"2024-05-06 04:57:37",18,29.77,0.12
"2024-05-06 04:52:35",35,29.77,0.23
"2024-05-06 04:47:33",35,29.77,0.23
"2024-05-06 04:42:32",14,29.77,0.09
"2024-05-06 04:37:29",25,29.77,0.16
"2024-05-06 04:32:27",26,29.77,0.17
"2024-05-06 04:27:25",29,29.77,0.19
"2024-05-06 04:22:24",30,29.77,0.19
"2024-05-06 04:17:21",22,29.77,0.14
"2024-05-06 04:12:19",17,29.77,0.11
"2024-05-06 04:07:18",23,29.77,0.15
"2024-05-06 04:02:15",39,29.77,0.25
"2024-05-06 03:57:13",30,29.77,0.19
"2024-05-06 03:52:11",24,29.77,0.16
"2024-05-06 03:47:09",32,29.77,0.21
"2024-05-06 03:42:07",26,29.78,0.17
"2024-05-06 03:37:05",30,29.78,0.19
"2024-05-06 03:32:03",22,29.78,0.14
"2024-05-06 03:27:02",52,29.78,0.34
"2024-05-06 03:21:59",31,29.78,0.20
"2024-05-06 03:16:57",21,29.78,0.14
"2024-05-06 03:11:55",29,29.78,0.19
"2024-05-06 03:06:53",39,29.78,0.25
"2024-05-06 03:01:52",27,29.78,0.18
"2024-05-06 02:56:50",30,29.78,0.19
"2024-05-06 02:51:47",22,29.77,0.14
"2024-05-06 02:46:45",22,29.78,0.14
"2024-05-06 02:41:43",23,29.78,0.15
"2024-05-06 02:36:42",23,29.78,0.15
"2024-05-06 02:31:39",29,29.78,0.19
"2024-05-06 02:26:37",28,29.78,0.18
"2024-05-06 02:21:35",21,29.78,0.14
"2024-05-06 02:16:33",37,29.78,0.24
"2024-05-06 02:11:31",30,29.78,0.19
"2024-05-06 02:06:29",23,29.78,0.15
"2024-05-06 02:01:27",24,29.77,0.16
"2024-05-06 01:56:26",24,29.77,0.16
"2024-05-06 01:51:23",25,29.77,0.16
"2024-05-06 01:46:22",19,29.78,0.12
"2024-05-06 01:41:19",32,29.77,0.21
"2024-05-06 01:36:17",23,29.77,0.15
"2024-05-06 01:31:15",34,29.77,0.22
"2024-05-06 01:26:13",26,29.78,0.17
"2024-05-06 01:21:11",23,29.78,0.15
"2024-05-06 01:16:09",22,29.78,0.14
"2024-05-06 01:11:07",38,29.78,0.25
"2024-05-06 01:06:05",29,29.78,0.19
"2024-05-06 00:56:02",21,29.78,0.14
"2024-05-06 00:50:59",18,29.78,0.12
"2024-05-06 00:45:57",28,29.78,0.18
"2024-05-06 00:40:55",31,29.78,0.20
"2024-05-06 00:35:54",23,29.78,0.15
"2024-05-06 00:30:51",17,29.78,0.11
"2024-05-06 00:25:49",22,29.78,0.14
"2024-05-06 00:20:47",32,29.78,0.21
"2024-05-06 00:15:45",28,29.78,0.18
"2024-05-06 00:10:43",32,29.78,0.21
"2024-05-06 00:05:41",25,29.78,0.16
"2024-05-06 00:00:39",24,29.78,0.16
"2024-05-05 23:55:37",30,29.78,0.19
"2024-05-05 23:50:35",38,29.78,0.25
"2024-05-05 23:45:33",19,29.78,0.12
"2024-05-05 23:40:31",41,29.78,0.27
"2024-05-05 23:35:29",38,29.78,0.25
"2024-05-05 23:30:27",32,29.78,0.21
"2024-05-05 23:25:26",53,29.78,0.34
"2024-05-05 23:20:23",29,29.78,0.19
"2024-05-05 23:15:21",27,29.78,0.18
"2024-05-05 23:10:19",17,29.78,0.11
"2024-05-05 23:05:17",41,29.78,0.27
"2024-05-05 23:00:15",38,29.78,0.25
"2024-05-05 22:55:13",24,29.78,0.16
"2024-05-05 22:50:11",34,29.78,0.22
"2024-05-05 22:45:09",21,29.78,0.14
"2024-05-05 22:40:07",44,29.78,0.29
"2024-05-05 22:35:06",23,29.78,0.15
"2024-05-05 22:30:03",25,29.78,0.16
"2024-05-05 22:25:02",43,29.78,0.28
"2024-05-05 22:19:59",45,29.78,0.29
"2024-05-05 22:14:58",33,29.78,0.21
"2024-05-05 22:09:55",17,29.78,0.11
"2024-05-05 22:04:53",26,29.78,0.17
"2024-05-05 21:59:51",34,29.78,0.22
"2024-05-05 21:54:49",21,29.78,0.14
"2024-05-05 21:49:47",24,29.78,0.16
"2024-05-05 21:44:46",33,29.78,0.21
"2024-05-05 21:39:43",28,29.78,0.18
"2024-05-05 21:34:41",18,29.78,0.12
"2024-05-05 21:29:39",18,29.78,0.12
"2024-05-05 21:24:37",42,29.78,0.27
"2024-05-05 21:19:36",24,29.78,0.16
"2024-05-05 21:14:33",23,29.78,0.15
"2024-05-05 21:09:31",28,29.78,0.18
"2024-05-05 21:04:29",28,29.78,0.18
"2024-05-05 20:59:27",21,29.78,0.14
"2024-05-05 20:54:25",23,29.78,0.15
"2024-05-05 20:49:23",36,29.78,0.23
"2024-05-05 20:44:21",18,29.78,0.12
"2024-05-05 20:39:19",22,29.79,0.14
"2024-05-05 20:34:18",26,29.78,0.17
"2024-05-05 20:29:15",37,29.78,0.24
"2024-05-05 20:24:14",28,29.78,0.18
"2024-05-05 20:19:10",42,29.78,0.27
"2024-05-05 20:14:09",32,29.78,0.21
"2024-05-05 20:09:07",43,29.78,0.28
"2024-05-05 20:04:05",27,29.78,0.18
"2024-05-05 19:59:02",28,29.78,0.18
"2024-05-05 19:54:01",22,29.78,0.14
"2024-05-05 19:48:59",26,29.79,0.17
"2024-05-05 19:43:57",25,29.79,0.16
"2024-05-05 19:38:55",28,29.79,0.18
"2024-05-05 19:33:53",34,29.79,0.22
"2024-05-05 19:28:51",18,29.79,0.12
"2024-05-05 19:23:48",30,29.79,0.19
"2024-05-05 19:18:47",18,29.79,0.12
"2024-05-05 19:13:45",18,29.79,0.12
"2024-05-05 19:08:43",26,29.79,0.17
"2024-05-05 19:03:41",35,29.79,0.23
"2024-05-05 18:58:38",18,29.79,0.12
"2024-05-05 18:53:37",32,29.79,0.21
"2024-05-05 18:48:34",36,29.79,0.23
"2024-05-05 18:43:33",18,29.79,0.12
"2024-05-05 18:38:32",46,29.79,0.30
"2024-05-05 18:33:30",38,29.79,0.25
"2024-05-05 18:28:27",25,29.79,0.16
"2024-05-05 18:23:26",27,29.79,0.18
"2024-05-05 18:18:23",26,29.79,0.17
"2024-05-05 18:13:21",36,29.79,0.23
"2024-05-05 18:08:18",34,29.79,0.22
"2024-05-05 18:03:16",28,29.79,0.18
"2024-05-05 17:58:14",29,29.79,0.19
"2024-05-05 17:53:12",27,29.79,0.18
"2024-05-05 17:48:11",24,29.79,0.16
"2024-05-05 17:43:09",21,29.79,0.14
"2024-05-05 17:38:07",43,29.79,0.28
"2024-05-05 17:33:05",39,29.79,0.25
"2024-05-05 17:28:03",29,29.79,0.19
"2024-05-05 17:23:01",31,29.79,0.20
"2024-05-05 17:17:58",24,29.79,0.16
"2024-05-05 17:12:57",26,29.79,0.17
"2024-05-05 17:07:55",30,29.79,0.19
"2024-05-05 17:02:52",35,29.79,0.23
"2024-05-05 16:57:51",28,29.79,0.18
"2024-05-05 16:52:48",27,29.79,0.18
"2024-05-05 16:47:46",26,29.79,0.17
"2024-05-05 16:42:45",27,29.79,0.18
"2024-05-05 16:37:43",27,29.79,0.18
"2024-05-05 16:32:41",28,29.79,0.18
"2024-05-05 16:27:39",50,29.79,0.32
"2024-05-05 16:22:37",26,29.79,0.17
"2024-05-05 16:17:35",29,29.79,0.19
"2024-05-05 16:12:34",29,29.79,0.19
"2024-05-05 16:07:31",29,29.79,0.19
"2024-05-05 16:02:29",27,29.79,0.18
"2024-05-05 15:57:27",26,29.79,0.17
"2024-05-05 15:52:24",40,29.79,0.26
"2024-05-05 15:47:23",35,29.79,0.23
"2024-05-05 15:42:21",30,29.79,0.19
"2024-05-05 15:37:19",24,29.79,0.16
"2024-05-05 15:32:16",36,29.79,0.23
"2024-05-05 15:27:15",47,29.79,0.31
"2024-05-05 15:22:12",38,29.79,0.25
"2024-05-05 15:17:11",28,29.79,0.18
"2024-05-05 15:12:08",32,29.79,0.21
"2024-05-05 15:07:07",30,29.79,0.19
"2024-05-05 15:02:04",25,29.79,0.16
"2024-05-05 14:57:03",23,29.79,0.15
"2024-05-05 14:52:01",34,29.79,0.22
"2024-05-05 14:46:59",29,29.79,0.19
"2024-05-05 14:41:56",21,29.79,0.14
"2024-05-05 14:36:55",36,29.79,0.23
"2024-05-05 14:31:54",33,29.79,0.21
"2024-05-05 14:26:51",29,29.79,0.19
"2024-05-05 14:21:49",27,29.79,0.18
"2024-05-05 14:16:47",30,29.79,0.19
"2024-05-05 14:11:44",26,29.79,0.17
"2024-05-05 14:06:43",25,29.79,0.16
"2024-05-05 14:01:41",24,29.79,0.16
"2024-05-05 13:56:39",34,29.79,0.22
"2024-05-05 13:51:37",26,29.79,0.17
"2024-05-05 13:46:35",39,29.79,0.25
"2024-05-05 13:41:32",33,29.79,0.21
"2024-05-05 13:36:31",27,29.79,0.18
"2024-05-05 13:31:28",40,29.79,0.26
"2024-05-05 13:26:27",38,29.79,0.25
"2024-05-05 13:21:25",25,29.79,0.16
"2024-05-05 13:16:23",58,29.79,0.38
"2024-05-05 13:11:21",28,29.79,0.18
"2024-05-05 13:06:20",21,29.79,0.14
"2024-05-05 13:01:17",32,29.79,0.21
"2024-05-05 12:56:14",24,29.79,0.16
"2024-05-05 12:51:12",41,29.79,0.27
"2024-05-05 12:46:11",22,29.79,0.14
"2024-05-05 12:41:09",17,29.79,0.11
"2024-05-05 12:36:08",29,29.79,0.19
"2024-05-05 12:31:04",23,29.79,0.15
"2024-05-05 12:26:02",35,29.79,0.23
"2024-05-05 12:21:00",35,29.79,0.23
"2024-05-05 12:15:59",24,29.79,0.16
"2024-05-05 12:10:57",33,29.79,0.21
"2024-05-05 12:05:56",46,29.79,0.30
"2024-05-05 12:00:53",27,29.79,0.18
"2024-05-05 11:55:51",20,29.79,0.13
"2024-05-05 11:50:48",31,29.79,0.20
"2024-05-05 11:45:48",38,29.79,0.25
"2024-05-05 11:40:45",38,29.79,0.25
"2024-05-05 11:35:45",40,29.79,0.26
"2024-05-05 11:30:40",21,29.79,0.14
"2024-05-05 11:25:39",39,29.79,0.25
"2024-05-05 11:20:36",30,29.79,0.19
"2024-05-05 11:15:35",11,29.79,0.07
"2024-05-05 11:10:32",29,29.79,0.19
"2024-05-05 11:05:31",23,29.79,0.15
"2024-05-05 11:00:28",44,29.79,0.29
"2024-05-05 10:55:27",25,29.79,0.16
"2024-05-05 10:50:24",16,29.79,0.10
"2024-05-05 10:45:23",24,29.79,0.16
"2024-05-05 10:40:21",19,29.79,0.12
"2024-05-05 10:35:19",25,29.79,0.16
"2024-05-05 10:30:16",22,29.79,0.14
"2024-05-05 10:25:15",24,29.79,0.16
"2024-05-05 10:20:13",36,29.79,0.23
"2024-05-05 10:15:12",17,29.79,0.11
"2024-05-05 10:10:09",45,29.79,0.29
"2024-05-05 10:05:07",40,29.79,0.26
"2024-05-05 10:00:09",42,29.79,0.27
"2024-05-05 09:55:03",21,29.79,0.14
"2024-05-05 09:50:00",32,29.79,0.21
"2024-05-05 09:44:59",37,29.79,0.24
"2024-05-05 09:39:56",24,29.79,0.16
"2024-05-05 09:34:56",37,29.79,0.24
"2024-05-05 09:29:52",18,29.79,0.12
"2024-05-05 09:24:51",23,29.79,0.15
"2024-05-05 09:19:48",34,29.79,0.22
"2024-05-05 09:14:48",41,29.79,0.27
"2024-05-05 09:09:45",25,29.79,0.16
"2024-05-05 09:04:44",38,29.79,0.25
"2024-05-05 08:59:40",33,29.79,0.21
"2024-05-05 08:54:39",29,29.79,0.19
"2024-05-05 08:49:36",24,29.79,0.16
"2024-05-05 08:44:35",28,29.79,0.18
"2024-05-05 08:39:32",37,29.79,0.24
"2024-05-05 08:34:30",25,29.79,0.16
"2024-05-05 08:29:28",40,29.79,0.26
"2024-05-05 08:24:26",36,29.79,0.23
"2024-05-05 08:19:25",33,29.79,0.21
"2024-05-05 08:14:24",23,29.79,0.15
"2024-05-05 08:09:20",26,29.79,0.17
"2024-05-05 08:04:18",20,29.79,0.13
"2024-05-05 07:59:16",25,29.79,0.16
"2024-05-05 07:54:15",25,29.79,0.16
"2024-05-05 07:49:13",38,29.79,0.25
"2024-05-05 07:44:10",50,29.79,0.32
"2024-05-05 07:39:08",28,29.79,0.18
"2024-05-05 07:34:06",53,29.79,0.34
"2024-05-05 07:29:05",33,29.79,0.21
"2024-05-05 07:24:03",33,29.79,0.21
"2024-05-05 07:19:00",28,29.79,0.18
"2024-05-05 07:13:58",20,29.79,0.13
"2024-05-05 07:08:56",30,29.79,0.19
"2024-05-05 07:03:54",26,29.80,0.17
"2024-05-05 06:58:53",14,29.80,0.09
"2024-05-05 06:53:50",41,29.80,0.27
"2024-05-05 06:48:48",26,29.80,0.17
"2024-05-05 06:43:46",32,29.80,0.21
"2024-05-05 06:38:44",20,29.80,0.13
"2024-05-05 06:33:42",35,29.80,0.23
"2024-05-05 06:28:40",29,29.80,0.19
"2024-05-05 06:23:38",30,29.79,0.19
"2024-05-05 06:18:36",53,29.79,0.34
"2024-05-05 06:13:35",22,29.80,0.14
"2024-05-05 06:08:34",28,29.80,0.18
"2024-05-05 06:03:31",41,29.80,0.27
"2024-05-05 05:58:28",40,29.79,0.26
"2024-05-05 05:53:28",23,29.80,0.15
"2024-05-05 05:48:24",33,29.80,0.21
"2024-05-05 05:43:23",28,29.79,0.18
"2024-05-05 05:38:20",23,29.79,0.15
"2024-05-05 05:33:19",39,29.79,0.25
"2024-05-05 05:28:16",23,29.80,0.15
"2024-05-05 05:23:15",47,29.80,0.31
"2024-05-05 05:18:12",32,29.79,0.21
"2024-05-05 05:13:11",37,29.80,0.24
"2024-05-05 05:08:10",41,29.80,0.27
"2024-05-05 05:03:06",22,29.80,0.14
"2024-05-05 04:58:05",47,29.79,0.31
"2024-05-05 04:53:02",23,29.80,0.15
"2024-05-05 04:48:01",28,29.80,0.18
"2024-05-05 04:42:58",42,29.79,0.27
"2024-05-05 04:37:56",36,29.79,0.23
"2024-05-05 04:32:54",28,29.79,0.18
"2024-05-05 04:27:52",37,29.79,0.24
"2024-05-05 04:22:51",19,29.79,0.12
"2024-05-05 04:17:48",45,29.80,0.29
"2024-05-05 04:12:47",25,29.79,0.16
"2024-05-05 04:07:44",45,29.80,0.29
"2024-05-05 04:02:42",22,29.80,0.14
"2024-05-05 03:57:41",40,29.80,0.26
"2024-05-05 03:52:39",27,29.80,0.18
"2024-05-05 03:47:37",38,29.80,0.25
"2024-05-05 03:42:35",31,29.80,0.20
"2024-05-05 03:37:32",14,29.80,0.09
"2024-05-05 03:32:31",44,29.80,0.29
"2024-05-05 03:27:28",24,29.80,0.16
"2024-05-05 03:22:26",39,29.80,0.25
"2024-05-05 03:17:24",32,29.80,0.21
"2024-05-05 03:12:24",48,29.80,0.31
"2024-05-05 03:07:20",30,29.80,0.19
"2024-05-05 03:02:19",26,29.80,0.17
"2024-05-05 02:57:16",31,29.80,0.20
"2024-05-05 02:52:15",31,29.80,0.20
"2024-05-05 02:47:12",44,29.80,0.29
"2024-05-05 02:42:11",32,29.80,0.21
"2024-05-05 02:37:08",37,29.80,0.24
"2024-05-05 02:32:06",27,29.80,0.18
"2024-05-05 02:27:04",24,29.80,0.16
"2024-05-05 02:22:03",18,29.80,0.12
"2024-05-05 02:17:01",27,29.80,0.18
"2024-05-05 02:11:59",43,29.80,0.28
"2024-05-05 02:06:56",28,29.80,0.18
"2024-05-05 02:01:55",22,29.80,0.14
"2024-05-05 01:56:52",39,29.80,0.25
"2024-05-05 01:51:51",16,29.80,0.10
"2024-05-05 01:46:49",32,29.80,0.21
"2024-05-05 01:41:46",31,29.80,0.20
"2024-05-05 01:36:45",28,29.80,0.18
"2024-05-05 01:31:42",43,29.80,0.28
"2024-05-05 01:26:42",36,29.80,0.23
"2024-05-05 01:21:38",23,29.80,0.15
"2024-05-05 01:16:36",34,29.80,0.22
"2024-05-05 01:11:34",32,29.80,0.21
"2024-05-05 01:06:32",29,29.80,0.19
"2024-05-05 01:01:31",40,29.80,0.26
"2024-05-05 00:56:28",28,29.80,0.18
"2024-05-05 00:51:27",28,29.80,0.18
"2024-05-05 00:46:24",31,29.80,0.20
"2024-05-05 00:41:22",35,29.80,0.23
"2024-05-05 00:36:21",33,29.80,0.21
"2024-05-05 00:31:19",47,29.80,0.31
"2024-05-05 00:26:16",27,29.80,0.18
"2024-05-05 00:21:15",36,29.80,0.23
"2024-05-05 00:16:12",19,29.80,0.12
"2024-05-05 00:11:10",27,29.80,0.18
"2024-05-05 00:06:08",27,29.80,0.18
"2024-05-05 00:01:07",30,29.80,0.19
"2024-05-04 23:56:04",59,29.80,0.38
"2024-05-04 23:51:02",42,29.80,0.27
"2024-05-04 23:46:00",30,29.80,0.19
"2024-05-04 23:40:59",27,29.80,0.18
"2024-05-04 23:35:56",31,29.80,0.20
"2024-05-04 23:30:55",29,29.80,0.19
"2024-05-04 23:25:52",31,29.80,0.20
"2024-05-04 23:20:51",26,29.80,0.17
"2024-05-04 23:15:48",42,29.80,0.27
"2024-05-04 23:10:46",22,29.80,0.14
"2024-05-04 23:05:44",26,29.80,0.17
"2024-05-04 23:00:44",26,29.80,0.17
"2024-05-04 22:55:40",39,29.80,0.25
"2024-05-04 22:50:38",23,29.80,0.15
"2024-05-04 22:45:36",33,29.80,0.21
"2024-05-04 22:40:34",36,29.80,0.23
"2024-05-04 22:35:32",24,29.80,0.16
"2024-05-04 22:30:30",25,29.80,0.16
"2024-05-04 22:25:28",37,29.80,0.24
"2024-05-04 22:20:26",39,29.80,0.25
"2024-05-04 22:15:25",28,29.80,0.18
"2024-05-04 22:10:22",33,29.80,0.21
"2024-05-04 22:05:20",24,29.80,0.16
"2024-05-04 22:00:19",28,29.80,0.18
"2024-05-04 21:55:16",28,29.80,0.18
"2024-05-04 21:50:14",40,29.80,0.26
"2024-05-04 21:45:12",37,29.80,0.24
"2024-05-04 21:40:11",27,29.80,0.18
"2024-05-04 21:35:08",16,29.80,0.10
"2024-05-04 21:30:07",51,29.80,0.33
"2024-05-04 21:25:05",37,29.80,0.24
"2024-05-04 21:20:02",41,29.80,0.27
"2024-05-04 21:15:00",27,29.80,0.18
"2024-05-04 21:09:58",25,29.80,0.16
"2024-05-04 21:04:56",34,29.80,0.22
"2024-05-04 20:59:54",23,29.80,0.15
"2024-05-04 20:54:52",33,29.80,0.21
"2024-05-04 20:49:51",36,29.80,0.23
"2024-05-04 20:44:48",30,29.80,0.19
"2024-05-04 20:39:46",23,29.80,0.15
"2024-05-04 20:34:44",39,29.80,0.25
"2024-05-04 20:29:42",33,29.80,0.21
"2024-05-04 20:24:40",29,29.80,0.19
"2024-05-04 20:19:38",14,29.80,0.09
"2024-05-04 20:14:36",42,29.80,0.27
"2024-05-04 20:09:34",31,29.80,0.20
"2024-05-04 20:04:32",21,29.80,0.14
"2024-05-04 19:59:31",16,29.80,0.10
"2024-05-04 19:54:29",29,29.80,0.19
"2024-05-04 19:49:27",31,29.80,0.20
"2024-05-04 19:44:24",47,29.80,0.31
"2024-05-04 19:39:22",45,29.80,0.29
"2024-05-04 19:34:20",22,29.80,0.14